Location: Sternwarte Stuttgart
(48.7670°N, 9.1830°E)
Time: 22:44:22
(UTC+02:00)

ISS - All Passes

Search period start: 25 May 2016 00:00
Search period end: 04 June 2016 00:00
Orbit: 402 x 404 km, 51.6° (Epoch: 25 May)

Date Brightness Start Highest point End Pass type
(mag) Time Alt. Az. Time Alt. Az. Time Alt. Az.
25 May - 00:41:02 10° WSW 00:44:17 72° SSE 00:47:33 10° ENE visible
25 May - 02:17:40 10° W 02:20:52 50° N 02:24:04 10° ENE visible
25 May - 03:54:19 10° WNW 03:57:35 66° NNE 04:00:50 10° E visible
25 May - 05:30:54 10° W 05:33:54 33° SSW 05:36:53 10° SSE daylight
25 May - 23:48:28 10° SW 23:51:36 45° SSE 23:54:45 10° ENE visible
26 May - 01:24:48 10° W 01:28:02 57° N 01:31:17 10° ENE visible
26 May - 03:01:32 10° WNW 03:04:46 54° N 03:07:59 10° E visible
26 May - 04:38:02 10° WNW 04:41:15 54° SSW 04:44:27 10° SE visible
26 May - 06:16:18 10° WSW 06:17:06 11° SW 06:17:54 10° SSW daylight
26 May - 22:56:07 10° SSW 22:58:58 28° SE 23:01:50 10° E visible
27 May - 00:31:58 10° WSW 00:35:14 73° NNW 00:38:30 10° ENE visible
27 May - 02:08:44 10° WNW 02:11:55 49° N 02:15:07 10° E visible
27 May - 03:45:16 10° WNW 03:48:32 83° SSW 03:51:48 10° ESE visible
27 May - 05:22:17 10° W 05:24:36 18° SW 05:26:55 10° S daylight
27 May - 22:04:09 10° S 22:06:24 17° SE 22:08:40 10° E visible
27 May - 23:39:11 10° WSW 23:42:27 81° SSE 23:45:44 10° ENE visible
28 May - 01:15:52 10° W 01:19:04 49° N 01:22:16 10° ENE visible
28 May - 02:52:29 10° WNW 02:55:46 72° NNE 02:59:01 10° ESE visible
28 May - 04:29:08 10° W 04:32:02 29° SW 04:34:54 10° SSE visible
28 May - 21:13:22 10° SE 21:13:54 10° SE 21:14:26 10° SE daylight
28 May - 22:46:32 10° SW 22:49:44 52° SSE 22:52:56 10° ENE visible
29 May - 00:22:59 10° W 00:26:13 54° N 00:29:26 10° ENE visible
29 May - 01:59:42 10° WNW 02:02:57 56° NNE 02:06:11 10° E visible
29 May - 03:36:13 10° WNW 03:39:23 47° SSW 03:42:32 10° SE visible
29 May - 21:54:06 10° SSW 21:57:04 32° SE 22:00:02 10° E visible
29 May - 23:30:07 10° W 23:33:22 67° NNW 23:36:39 10° ENE visible
30 May - 01:06:53 10° WNW 01:10:05 49° N 01:13:17 10° E visible
30 May - 02:43:24 10° WNW 02:46:40 74° SSW 02:49:55 10° ESE visible
30 May - 04:20:38 10° W 04:22:40 16° SW 04:24:42 10° S visible
30 May - 21:01:58 10° S 21:04:28 20° SE 21:06:57 10° E daylight
30 May - 22:37:18 10° WSW 22:40:35 89° SSE 22:43:52 10° ENE visible
31 May - 00:14:01 10° WNW 00:17:12 48° N 00:20:24 10° ENE visible
31 May - 01:50:36 10° WNW 01:53:53 78° NNE 01:57:09 10° ESE visible
31 May - 03:27:20 10° W 03:30:06 25° SW 03:32:51 10° SSE visible
31 May - 20:10:32 10° SSE 20:11:55 12° SE 20:13:19 10° ESE daylight
31 May - 21:44:36 10° SW 21:47:49 60° SSE 21:51:03 10° ENE daylight
31 May - 23:21:07 10° W 23:24:20 52° N 23:27:33 10° ENE visible
01 Jun - 00:57:49 10° WNW 01:01:03 60° NNE 01:04:18 10° E visible
01 Jun - 02:34:21 10° WNW 02:37:27 41° SSW 02:40:32 10° SE visible
01 Jun - 20:52:04 10° SW 20:55:06 37° SSE 20:58:11 10° ENE daylight
01 Jun - 22:28:13 10° W 22:31:29 63° NNW 22:34:44 10° ENE visible
02 Jun - 00:04:58 10° WNW 00:08:12 51° N 00:11:24 10° E visible
02 Jun - 01:41:29 10° WNW 01:44:45 65° SSW 01:47:58 10° SE visible
02 Jun - 03:19:00 10° WSW 03:20:40 13° SW 03:22:20 10° SSW visible
02 Jun - 19:59:48 10° SSW 20:02:28 23° SE 20:05:08 10° E daylight
02 Jun - 21:35:22 10° WSW 21:38:39 83° NNW 21:41:56 10° ENE daylight
02 Jun - 23:12:07 10° WNW 23:15:18 48° N 23:18:29 10° ENE visible
03 Jun - 00:48:40 10° WNW 00:51:57 86° NNE 00:55:14 10° ESE visible
03 Jun - 02:25:30 10° W 02:28:07 22° SW 02:30:42 10° SSE visible
03 Jun - 19:08:03 10° S 19:09:53 14° SE 19:11:43 10° ESE daylight
03 Jun - 20:42:36 10° WSW 20:45:51 68° SSE 20:49:06 10° ENE daylight
03 Jun - 22:19:12 10° W 22:22:25 50° N 22:25:37 10° ENE visible
